Ellsworth AFB, SD

4:11 AM MDT on August 18, 2017 (GMT -0600)
Ellsworth Air Force Base

Weather History for KRCA - April, 2013

Change the Weather History Date:

Saturday, April 20, 2013

  Actual Average Record
Temperature  
Mean Temperature 40 °F -  
Max Temperature 52 °F 56 °F 71 °F (2014)
Min Temperature 28 °F 34 °F 20 °F (2011)
Degree Days  
Heating Degree Days 26    
Moisture  
Dew Point 32 °F    
Average Humidity 78    
Maximum Humidity 93    
Minimum Humidity 58    
Precipitation  
Precipitation 0.05 in - - ()
Sea Level Pressure  
Sea Level Pressure 29.96 in    
Wind  
Wind Speed 11 mph (SSE)    
Max Wind Speed 21 mph    
Max Gust Speed -    
Visibility 10 miles    
Events Rain    
Averages and records for this station are not official NWS values.
T = Trace of Precipitation, MM = Missing Value Source: NWS Daily Summary

Daily Weather History Graph

Daily Weather History Graph

Search for Another Location

Airport or City:

Trip Planner

Search our weather history database for the weather conditions in past years. The results will help you decide how hot, cold, wet, or windy it might be!

Date:

Astronomy

Apr. 20, 2013 Rise Set
Actual Time 6:00 AM MDT 7:43 PM MDT
Civil Twilight 5:29 AM MDT 8:13 PM MDT
Nautical Twilight 4:52 AM MDT 8:51 PM MDT
Astronomical Twilight 4:12 AM MDT 9:31 PM MDT
Moon 2:18 PM MDT (4/20) 3:02 AM MDT (4/20)
Length of Visible Light 14h 44m
Length of Day
13h 42m
Waxing Gibbous, 71% of the Moon is Illuminated
Apr 20
Waxing Gibbous
Apr 25
Full
May 2
Last Quarter
May 9
New
May 17
First Quarter

Hourly Weather History & Observations

Time (MDT) Temp. Windchill Dew Point Humidity Pressure Visibility Wind Dir Wind Speed Gust Speed Precip Events Conditions
12:55 AM 32.2 °F 23.8 °F 29.7 °F 90% 30.01 in 10.0 mi SE 10.4 mph - N/A   Overcast
1:55 AM 30.7 °F 19.6 °F 26.4 °F 84% 30.00 in 10.0 mi SE 16.1 mph - N/A   Overcast
2:55 AM 29.7 °F 17.8 °F 24.8 °F 82% 29.99 in 10.0 mi SE 17.3 mph - N/A   Overcast
3:15 AM 30.2 °F 17.4 °F 24.8 °F 80% 29.97 in 10.0 mi SE 20.7 mph - N/A   Overcast
3:36 AM 30.2 °F 17.8 °F 24.8 °F 80% 29.97 in 10.0 mi SE 19.6 mph - N/A   Overcast
3:55 AM 29.5 °F 17.6 °F 25.3 °F 85% 29.97 in 10.0 mi SE 17.3 mph - 0.00 in   Overcast
4:55 AM 29.1 °F 17.5 °F 25.0 °F 85% 29.96 in 10.0 mi SE 16.1 mph - N/A   Overcast
5:29 AM 28.4 °F 18.0 °F 24.8 °F 86% 29.99 in 10.0 mi SE 12.7 mph - N/A   Mostly Cloudy
5:55 AM 28.9 °F 19.8 °F 25.3 °F 86% 29.99 in 10.0 mi SE 10.4 mph - N/A   Overcast
6:19 AM 28.4 °F 19.1 °F 24.8 °F 86% 29.98 in 10.0 mi SSE 10.4 mph - N/A   Overcast
6:55 AM 29.5 °F 20.4 °F 25.5 °F 85% 29.97 in 10.0 mi SSE 10.4 mph - N/A   Overcast
7:24 AM 30.2 °F 22.6 °F 26.6 °F 86% 29.99 in 10.0 mi SSE 8.1 mph - N/A   Overcast
7:27 AM 30.2 °F 22.6 °F 26.6 °F 86% 29.98 in 10.0 mi SSE 8.1 mph - N/A   Overcast
7:55 AM 30.6 °F 23.1 °F 25.7 °F 82% 29.98 in 10.0 mi SE 8.1 mph - N/A   Overcast
8:17 AM 32.0 °F 23.6 °F 26.6 °F 80% 29.98 in 10.0 mi SE 10.4 mph - N/A   Overcast
8:39 AM 32.0 °F 24.8 °F 26.6 °F 80% 29.98 in 10.0 mi SE 8.1 mph - N/A   Overcast
8:55 AM 32.0 °F 24.2 °F 27.9 °F 85% 29.98 in 10.0 mi SE 9.2 mph - 0.00 in   Overcast
9:55 AM 34.3 °F 27.0 °F 28.4 °F 79% 29.97 in 10.0 mi SSE 9.2 mph - N/A   Overcast
10:55 AM 37.2 °F 31.9 °F 29.8 °F 75% 29.97 in 10.0 mi SE 6.9 mph - N/A   Overcast
11:55 AM 40.5 °F 35.1 °F 31.6 °F 71% 29.96 in 10.0 mi SSE 8.1 mph - N/A   Clear
12:55 PM 43.5 °F 39.4 °F 33.4 °F 68% 29.96 in 10.0 mi SSE 6.9 mph - N/A   Partly Cloudy
1:55 PM 45.1 °F 43.7 °F 34.5 °F 66% 29.95 in 10.0 mi Variable 3.5 mph - N/A   Mostly Cloudy
2:55 PM 47.8 °F - 36.0 °F 63% 29.94 in 10.0 mi Variable 3.5 mph - N/A   Clear
3:55 PM 49.1 °F - 36.0 °F 61% 29.94 in 10.0 mi WNW 4.6 mph - N/A   Overcast
4:05 PM 50.0 °F - 35.6 °F 58% 29.91 in 10.0 mi SE 6.9 mph - N/A Rain Light Rain
4:15 PM 50.0 °F - 37.4 °F 62% 29.91 in 10.0 mi South 8.1 mph - N/A   Scattered Clouds
4:55 PM 51.6 °F - 37.4 °F 58% 29.91 in 10.0 mi South 8.1 mph - 0.00 in   Scattered Clouds
5:55 PM 51.6 °F - 37.4 °F 58% 29.91 in 10.0 mi SE 5.8 mph - N/A   Overcast
6:55 PM 49.8 °F - 37.2 °F 62% 29.93 in 10.0 mi SE 5.8 mph - N/A   Partly Cloudy
7:53 PM 46.4 °F 43.5 °F 39.2 °F 76% 29.95 in 10.0 mi South 5.8 mph - N/A   Light Drizzle
7:55 PM 46.9 °F - 39.0 °F 74% 29.95 in 10.0 mi SSW 8.1 mph - 0.00 in   Light Drizzle
7:58 PM 46.4 °F 42.9 °F 39.2 °F 76% 29.95 in 10.0 mi South 6.9 mph - N/A Rain Light Rain
8:31 PM 44.6 °F 39.2 °F 39.2 °F 81% 29.96 in 10.0 mi SSE 10.4 mph - N/A   Mostly Cloudy
8:55 PM 43.2 °F 39.0 °F 39.6 °F 87% 29.97 in 10.0 mi SSE 6.9 mph - 0.01 in   Scattered Clouds
9:48 PM 42.8 °F 37.0 °F 39.2 °F 87% 29.99 in 10.0 mi West 10.4 mph - N/A Rain Light Rain
9:52 PM 42.8 °F 38.6 °F 39.2 °F 87% 29.99 in 6.0 mi WNW 6.9 mph - N/A Rain Light Rain
9:55 PM 42.1 °F 38.4 °F 39.2 °F 90% 29.99 in 5.0 mi WNW 5.8 mph - 0.01 in Rain Light Rain
10:38 PM 42.8 °F 37.5 °F 41.0 °F 93% 29.96 in 10.0 mi SSW 9.2 mph - N/A   Mostly Cloudy
10:40 PM 42.8 °F 38.0 °F 41.0 °F 93% 29.96 in 10.0 mi SSW 8.1 mph - N/A   Mostly Cloudy
10:55 PM 44.2 °F 38.8 °F 39.0 °F 82% 29.94 in 10.0 mi SW 10.4 mph - 0.03 in   Overcast
11:55 PM 43.2 °F 37.0 °F 38.3 °F 83% 29.95 in 10.0 mi SW 11.5 mph - N/A   Overcast